Regional Weather Roundup
Issued by NWS Charleston, SC

Current Version | Previous Version | Text Only | Print | Product List | Glossary Off
Versions: 1 2 3 4 5 6 7 8 9 10 11 12 13 14 15 16 17 18 19 20 21 22 23 24 25 26 27 28 29 30 31 32 33 34 35 36 37 38 39 40 41 42 43 44 45 46 47 48 49 50
000 ASUS42 KCHS 121613 RWRCHS REGIONAL WEATHER ROUNDUP NATIONAL WEATHER SERVICE CHARLESTON SC 1100 AM EST FRI FEB 12 2016 NOTE: "FAIR" INDICATES FEW OR NO CLOUDS BELOW 12,000 FEET WITH NO SIGNIFICANT WEATHER AND/OR OBSTRUCTIONS TO VISIBILITY. NOT ALL STATIONS ARE QUALITY CONTROLLED BY THE NATIONAL WEATHER SERVICE. USE DATA WITH CAUTION...ESPECIALLY DEWPOINT OBSERVATIONS. SCZ027-030-031-034>040-042>050-121700- ...SOUTHEAST SOUTH CAROLINA... CITY SKY/WX TMP DP RH WIND PRES REMARKS N CHARLESTON CLOUDY 52 42 69 CALM 30.12F WATERFRONT PRK N/A 50 48 93 VRB3 29.97F MOUNT PLEASANT CLOUDY 52 45 76 CALM 30.13S JOHNS ISLAND CLOUDY 55 52 88 CALM 30.12F PINOPOLIS N/A 46 39 76 NE6 30.03F MONCKS CORNER CLOUDY 45 36 70 CALM 30.12F SUMMERVILLE NOT AVBL BEAUFORT MCAS DRIZZLE 52 50 93 CALM 30.11F BEAUFORT ARPT CLOUDY 55 54 94 SW3 30.11F FOG HILTON HEAD IS NOT AVBL WALTERBORO CLOUDY 50 43 76 CALM 30.13F ALLENDALE PTSUNNY 48 41 76 CALM 30.12S ...SOUTHERN MIDLANDS AND PEE DEE... CITY SKY/WX TMP DP RH WIND PRES REMARKS GEORGETOWN CLOUDY 45 36 70 NE8 30.14F KINGSTREE CLOUDY 41 27 56 N3 30.15F ORANGEBURG PTSUNNY 48 36 63 NE5 30.14R BARNWELL FAIR 50 39 66 CALM 30.13F AIKEN FAIR 41 32 70 N7 30.16S MANNING CLOUDY 43 32 65 N7 30.15R COLUMBIA PTSUNNY 40 25 55 NE3 30.15F SUMTER NOT AVBL FLORENCE CLOUDY 36 17 46 NE8 30.18S WCI 30 MYRTLE BEACH CLOUDY 43 27 52 N12 30.17S N MYRTLE BEACH CLOUDY 41 30 65 NE8 30.14S $$ GAZ063-065-086>088-099>101-113>116-118-119-134>141-150-121700- ...SOUTHEAST GEORGIA... CITY SKY/WX TMP DP RH WIND PRES REMARKS SAVANNAH ARPT CLOUDY 62 54 74 SW12 30.11F HUNTER AAF NOT AVBL FORT STEWART NOT AVBL STATESBORO CLOUDY 51 49 94 CALM 30.12R SYLVANIA FOG 46 46 100 N3 30.13S VSB 1 CLAXTON CLOUDY 63 58 83 S9 30.11F ...CSRA...CENTRAL AND FAR SOUTHEAST GEORGIA... CITY SKY/WX TMP DP RH WIND PRES REMARKS THOMSON CLOUDY 43 36 75 N5 30.19S AUGUSTA-BUSH CLOUDY 48 36 63 VRB3 30.13F AUGUSTA-DANIEL PTSUNNY 46 33 60 N7 30.14F SWAINSBORO DRIZZLE 45 45 100 CALM 30.14R VIDALIA CLOUDY 61 54 77 W7 30.12R EASTMAN CLOUDY 57 51 82 W8 30.15S HAZLEHURST CLOUDY 64 56 77 SW7G17 30.12R ALMA CLOUDY 62 55 77 SW12 30.14S WAYCROSS CLOUDY 66 59 77 W18 30.15F JESUP CLOUDY 64 59 82 W6 30.14F BAXLEY CLOUDY 64 57 77 W12G17 30.12F BRUNSWICK CLOUDY 64 55 72 SW17G24 30.16S SAINT SIMONS CLOUDY 64 56 75 SW16 30.15F $$ SCZ027-028-034-036>038-045-046-048>050-GAZ119-141-121700- ...LAKE AND SUPPLEMENTAL COASTAL OBSERVATIONS... STATION/POSITION TIME TEMP WIND PRES WAVE SWELL AIR SEA DIR/SP/G HT/PER HT/PER/DIR (UTC) (F) (DEG/KT/KT) (MB) (FT/S) (FT/S/D) WINYAH BAY NOT AVBL LAKE MURRAY 1500 36 40/ 1/ 4 1021.0F ACE BASIN NERRS 1445 50 CALM 1020.0 FORT PULASKI 1500 55 50 200/ 7/ 10 1020.5F SAPELO ISLAND 1500 57 210/ 8 1021.0S $$ ANZ835-935-AMZ111-154-330-350-352-354-370-450-454-472-121700- ...C-MAN AND BUOY OBSERVATIONS... STATION/POSITION TIME TEMP WIND PRES WAVE SWELL AIR SEA DIR/SP/G HT/PER HT/PER/DIR (UTC) (F) (DEG/KT/KT) (MB) (FT/S) (FT/S/D) BUOY 41004 1550 59 68 250/ 17/ 19 1019.1F 4/ 6 2/ 8 BUOY 41008 1550 54 52 200/ 14/ 16 1020.9F 4/ 5 FOLLY BEACH CMAN 1500 50 CALM / 1 1020.6F CAPERS NEARSHORE 1508 51 70/ 8/ 12 1020.2F FRIPP NEARSHORE 1500 52 250/ 6/ 8 1019.6F STATION/POSITION TIME TEMP WIND PRES WAVE SWELL AIR SEA DIR/SP/G HT/PER HT/PER/DIR (UTC) (F) (DEG/KT/KT) (MB) (FT/S) (FT/S/D) 5E ST. MARYS GA 1521 56 N/A 2/ 5 FRYING PAN BUOY 1500 55 56 50/ 14/ 16 1019.0F BUOY 41025 1550 45 71 60/ 12/ 17 1023.2F 3/ 8 3/ 70/ 8 CAPE LOOKOUT NC NOT AVBL BUOY 41002 1550 64 68 210/ 25/ 33 N/A 4/ 8 3/ 30/ 8 BUOY 41010 1520 67 72 1025.7S ST AUGUSTINE FL 1600 67 57 250/ 9/ 12 1023.9F $$

USA.gov is the U.S. government's official web portal to all federal, state and local government web resources and services.